sat.trackr.live / text

‹ back to catalog

ITUPSAT1

NORAD 35935 · 2009-051E

PAYLOAD ACTIVE UNKNOWN

§ Identity

Operator
Country
TURK
Launch date
2009-09-23
Launch site
SRILR
Launch vehicle
Mass (kg)
RCS (m²)
0.03

Purposes: comms, tech_demo

External: N2YO · Heavens-Above · Gunter

§ Orbital elements

Epoch: 2026-05-24T06:11:00.561696Z

Period
98.60 min
Inclination
98.4065°
Eccentricity
0.0006654
Mean motion
14.60398238 rev/d
Perigee alt
687.2 km
Apogee alt
696.6 km
Semi-major
7,070.0 km
B*
1.2977e-4
RAAN
50.6306°
Arg perigee
322.4527°
Mean anomaly
37.6208°
Rev number
88,524

§ Raw data

ITUPSAT11 35935U 09051E   26144.25764539  .00000579  00000+0  12977-3 0  99972 35935  98.4065  50.6306 0006654 322.4527  37.6208 14.60398238885242

JSON: /api/v1/satellites/35935 · /tle

For live sub-satellite position, see the globe view (requires WebGL).

§ Visibility from observer

Set your observer location to see the next 7 days of passes ≥ 10°. The values pass through the URL so the page stays shareable.

No JS? Fill the form by hand. The geolocation button needs JavaScript.

§ Radio — SatNOGS DB

ModeDescriptionDownlinkUplink
CW CW Beacon 437.325 MHz
GFSK GFSK Telemetry 437.325 MHz
GFSK GMSK Telemetry Drifted 437.323 MHz

3 transmitters · refreshed weekly from db.satnogs.org